Location: York
(31.8935°S, 116.7682°E)
Time: 18:09:29
(UTC+08:00)

Hubble Space Telescope - Pass Details

Date: 16 May 2021
Orbit: 535 x 539 km, 28.5° (Epoch: 17 June)

Event Time Altitude Azimuth Distance (km) Brightness Sun altitude
Rises 19:28:43 0° 293° (WNW) 2,685 5.5 -26.5°
Reaches altitude 10° 19:31:03 10° 300° (WNW) 1,796 4.3 -27.0°
Enters shadow 19:33:35 30° 326° (NW) 976 2.4 -27.5°
